Тишково

Россия / Московская область     56°05′21″N   37°44′17″E
В апреле 2022 года жителям России запретили посещать сайт meteo.paraplan.net по решению Генеральной прокуратуры. Аудитория сайта уменьшилась в 10 раз. Владельцы сайта не видят смысла в поддержке погодного сервера в таких условиях. Сайт будет закрыт в октябре.
темп.,
°C
ветер,
м/с
пор.,
м/с
влажн.,
%
обл.,
%
осадки,
мм/ч
давл.,
гПа
погр.,
м
4 октября, вт
вт400:00+10ююв8188099 0.1 10031516
03:00+10ююв81678100 0.2 10041410
06:00+10ююв81580100 0.0 10051495
09:00+10ююв8157899 0.1 10061287
12:00+11ююв8167098 0.0 10061671
15:00+8ю51285100 1.3 10091339
18:00+8ююв41084100 0.4 1009640
21:00+8ююв61181100 0.6 10081097
5 октября, ср
ср500:00+7ю5986100 0.3 10091177
03:00+6ю4889100 0.8 1009927
06:00+6ююз4788100 0.8 1010846
09:00+6юз3589100 1.3 10111032
12:00+6зюз358497 0.5 1012646
15:00+6з357898 0.6 1014680
18:00+6з3684100 0.2 1015459
21:00+5з3690100 0.3 1015841
6 октября, чт
чт600:00+5з3790100 0.1 1016438
03:00+5з369079 0.1 1017291
06:00+3з25955 0.0 1017114
09:00+6з23855 0.0 1018240
12:00+9зюз24670 0.0 1018689
15:00+11зюз347384 0.0 1017829
18:00+10ююз378662 0.0 1017344
21:00+9ююз4119529 0.0 1016355
7 октября, пт
пт700:00+9юз41296100 0.0 1015404
03:00+9з41396100 0.0 1015471
06:00+11зсз5118459 0.0 1016759
09:00+10зсз5128497 0.0 1019799
12:00+10з51074100 0.0 10211254
15:00+11з610703 0.0 10211086
18:00+10з410770 0.0 1022440
21:00+8зюз411860 0.0 1024378
8 октября, сб
сб800:00+7зюз39924 0.0 1024226
03:00+6зюз38950 0.0 1024193
06:00+6юз39955 0.0 1024218
09:00+8юз498510 0.0 1024355
12:00+12юз476842 0.0 1023710
15:00+14ююз576046 0.0 10201010
18:00+11ююз4107455 0.0 1019409
21:00+10ююз51379100 0.0 1018608